铱星星座 103星 (IRIDIUM 103)

导读 | 星芒AI

IRIDIUM 103 是 IRIDIUM 卫星星座的一部分,由美国 IRIDIUM 公司运营,用于提供全球范围的移动卫星通信服务。该卫星属于 LEO(低地球轨道)卫星,运行在约 780 公里的高度,与其他 IRIDIUM 卫星共同构建通信网络。IRIDIUM 103 主要支持语音通话、短信和数据传输,广泛应用于航空、航海、军事和偏远地区通信。其设计具备抗干扰能力,确保在极端环境下仍可稳定通信。

基本信息
目录编号:
41918
目录名称:
IRIDIUM 103
国际标识:
2017-003B
轨道中心:
EARTH
卫星名称:
铱星星座 103星
卫星全名:
铱星星座 103星 (IRIDIUM 103)
卫星状态:
在轨 (已飞行3210 天)
发射日期:
2017-01-14 UTC
国别 :
美国 (US)
星等 :
--
轨道信息
数据来源 国际轨道数据
星历时间: 2025-10-28T17:09:26+0800
22小时前
查看轨道信息
半长轴: 7155.811km
偏心率: 0.0002402
轨道倾角: 86.403°
近地点辐角 74.984°
升交点赤经 185.285°
平近点角 285.162°
近地点: 775.957km
远地点: 779.395km
周期: 100.403分钟
每日圈数: 14.342158
详细信息
平衡模式:
三轴稳定
覆盖范围:
全球
运营商:
铱星通信公司
运营商所在国:
美国
使用方式:
暂无
卫星简介
铱星(Iridium)是由共66个运作中的通信卫星组成的卫星通信系统。这个系统原本规划77个通信卫星,所以用原子序数为77的铱元素来命名。铱卫星允许人们使用手持型电子设备进行全球性的语音及数据通讯。该卫星仍在工作。
2D轨道图
3D轨道图
轨道高度分析图
轨道倾角分析图
轨道综合分析图
查看轨道综合分析图